Regional Weather Roundup
Issued by NWS

Home | Current Version | Previous Version | Graphics & Text | Print | Product List | Glossary On
Versions: 1 2 3 4 5 6 7 8 9 10 11 12 13 14 15 16 17 18 19 20 21 22 23 24 25 26 27 28 29 30 31 32 33 34 35 36 37 38 39 40 41 42 43 44 45 46 47 48 49 50
000
ASUS43 KLSX 300110
RWRMO

WEATHER SUMMARY FOR MISSOURI
NATIONAL WEATHER SERVICE SPRINGFIELD MO
800 PM CDT FRI JUL 29 2016

NOTE: "FAIR" INDICATES FEW OR NO CLOUDS BELOW 12,000 FEET WITH NO
       SIGNIFICANT WEATHER AND/OR OBSTRUCTIONS TO VISIBILITY.
       CURRENT SKY AND/OR WEATHER CONDITIONS ARE NOT AVAILABLE FOR
       CHILLICOTHE AND FARMINGTON.

MOZ001>031-035>038-043-044-053-054-300200-
...NORTHERN AND WESTERN MISSOURI...

CITY           SKY/WX    TMP DP  RH WIND       PRES   REMARKS
KANSAS CTY INT CLEAR     77  63  61 N6        29.98R
KANSAS C DTWN  CLEAR     81  62  52 N8        29.95S
LEE`S SUMMIT   CLEAR     80  63  55 N7        29.97S
ST JOSEPH      CLEAR     77  62  59 VRB7      29.97S
CHILLICOTHE      N/A     78  63  59 CALM      29.96S
KIRKSVILLE     PTCLDY    74  63  68 N6        29.96S

$$
MOZ066>068-077>081-088>096-101>105-300200-
...SOUTHWEST MISSOURI...

CITY           SKY/WX    TMP DP  RH WIND       PRES   REMARKS
SPRINGFIELD    CLEAR     80  68  66 N7        29.96R
JOPLIN         CLEAR     81  70  69 N6        29.96R
BRANSON        PTCLDY    79  73  83 SE3       29.98R

$$
MOZ032>034-039>042-045>050-055>058-069>072-300200-
...CENTRAL MISSOURI...

CITY           SKY/WX    TMP DP  RH WIND       PRES   REMARKS
COLUMBIA       CLEAR     77  67  71 NW7       29.95S
JEFFERSON CITY CLEAR     80  67  64 NW5       29.92F
ROLLA          MOCLDY    78  70  76 NW3       29.94S
SEDALIA        CLEAR     78  68  71 N7        29.97S
WHITEMAN AFB   PTCLDY    78  70  76 N7        29.95R
OSAGE BEACH    CLEAR     76  73  91 CALM      29.95F

$$
MOZ051-052-059>065-300200-
...EAST CENTRAL MISSOURI...

CITY           SKY/WX    TMP DP  RH WIND       PRES   REMARKS
ST LOUIS INTL  MOCLDY    82  66  58 N8        29.92S
SPIRIT OF STL  MOCLDY    82  68  62 N9        29.90S
ST CHARLES     CLEAR     79  71  76 N5        29.90S

$$
MOZ072>076-082>087-097>100-106>115-300200-
...SOUTH CENTRAL AND SOUTHEAST MISSOURI...

CITY           SKY/WX    TMP DP  RH WIND       PRES   REMARKS
CAPE GIRARDEAU NOT AVBL
FARMINGTON     CLOUDY    77  74  90 CALM      29.93F
POPLAR BLUFF   CLOUDY    73  70  90 CALM      29.91R
WEST PLAINS    PTCLDY    73  69  87 W3        29.99R

$$




USA.gov is the U.S. government's official web portal to all federal, state and local government web resources and services.